www.pogodaiklimat.ru

Погода и климат >> Архив погоды >> Аргентина >> Сан-Рафаэль


ПОГОДА в Сан-Рафаэле

  • Прогноз погоды в Сан-Рафаэле
  • Монитор погоды в Сан-Рафаэле

АРХИВ ПОГОДЫ в Сан-Рафаэле

Время (UTC), дата Ветер
(напр.,м/с)
 
Видим.   Явления Облачность Т
(С)
Тd
(С)
f
(%)
Тe
(С)
Тes
(С)
Комфортность P
(гПа)
Po
(гПа)
Тmin
(С)
Tmax
(С)
R
(мм)
R24
(мм)
S
(см)
15 16.07 С 1 20 км 3/0
[Cs]
+15.8 +1.2 37 +17 +23 1017.3 930.2
18 16.07 С 4 20 км 3/0
[Cs]
+20.8 +2.1 29 +21 +25 комфорт 1013.7 927.4
21 16.07 С 6 20 км 4/0
[Ac As]
+18.4 +2.4 34 +18 +18 1013.9 927.4
00 17.07 С 3 20 км 6/0
[Ac As Cs]
+12.6 +3.0 52 +12 +12 1016.7 929.4 +4.6 +21.0
03 17.07 З 4 20 км 5/0
[Cs]
+6.6 +1.8 71 +3 +3 1016.4 929.8
06 17.07 СЗ 4 20 км 3/0
[Cs]
+1.8 -0.9 82 -3 -3 1015.6 929.2
09 17.07 З 3 20 км 6/0
[Ac As Cs]
+3.0 -0.7 77 -1 -1 1013.9 927.4
12 17.07 З 2 20 км 8/0
[Ac As Cs]
+4.2 -1.7 65 +2 +2 1014.3 927.2 +1.4 +12.6
15 17.07 В 2 20 км 8/0
[Ac As Cs]
+12.2 +0.6 45 +12 +16 1013.8 927.0
18 17.07 СВ 5 20 км 5/0
[Ac As]
+19.8 +1.6 30 +20 +22 1010.1 924.0
21 17.07 С 5 20 км 5/0
[Cs]
+16.0 +2.8 41 +15 +15 1009.8 923.4
00 18.07 В 3 20 км 5/0
[Ac As]
+9.8 +5.6 75 +8 +8 1012.9 925.4 +4.2 +21.5
03 18.07 ЮЗ 4 20 км ясно +7.2 +4.1 81 +4 +4 1014.7 927.8
06 18.07 Ю 4 20 км ясно +8.3 +4.1 75 +5 +5 1017.3 931.4
09 18.07 ЮЗ 1 20 км 8/6 1050 м
[Sc Ac As]
+7.4 +3.3 75 +7 +7 1021.2 934.4
12 18.07 штиль 0 20 км 10/4 1050 м
[Sc Ac As]
+7.8 +1.1 63 +7 +7 1025.9 937.8 +5.3 +12.5
15 18.07 С 2 20 км {дождь} 10/4 900 м
[Sc Ac As]
+7.2 +0.9 64 +5 +6 1029.0 940.2
18 18.07 штиль 0 20 км {дождь} 10/6 900 м
[Sc Ac As]
+9.1 -3.2 42 +9 +10 1027.3 939.0 0.0
21 18.07 С 4 20 км 4/3 900 м
[Sc Ac As]
+9.3 -5.2 35 +7 +7 1025.6 937.4
00 19.07 З 3 20 км ясно +3.8 -7.4 44 +1 +1 1025.9 937.0 +3.8 +10.0
03 19.07 З 3 20 км ясно +2.4 -4.7 59 -1 -1 1025.7 936.5
06 19.07 З 3 20 км ясно +1.6 -3.0 71 -3 -3 1022.1 933.4
09 19.07 З 3 20 км 3/0
[Ac As]
+1.6 -3.0 71 -3 -3 1018.8 930.4
12 19.07 З 4 20 км 6/0
[Ac As Cs]
+0.8 -3.3 74 -4 -4 1018.5 929.2 -1.2 +3.8 0.0
15 19.07 С 4 20 км 6/0
[Cs]
+12.6 -2.1 36 +11 +14 1015.3 927.8
18 19.07 С 5 20 км 6/0
[Cs]
+16.2 -3.1 26 +15 +18 1011.5 924.6
21 19.07 С 4 20 км 8/0
[Ac As Cs]
+15.6 -0.4 34 +15 +15 1010.7 923.8
00 20.07 СЗ 1 20 км 3/0
[Ac As]
+7.8 -0.7 55 +7 +7 1014.7 926.2 +0.8 +17.4
03 20.07 ЮЗ 2 20 км ясно +3.8 -1.5 68 +1 +1 1013.4 926.2
06 20.07 ЮЗ 4 20 км 4/0
[Ac As]
+2.0 -1.6 77 -3 -3 1011.6 924.9
09 20.07 ЮЗ 3 20 км 5/0
[Ac As]
+3.2 -1.1 73 -0 -0 1009.7 923.2
12 20.07 З 4 20 км 6/0
[Ac As Ci fib]
+1.8 -1.8 77 -3 -3 1010.2 922.2 +0.4 +9.1
15 20.07 С 3 20 км 6/0
[Ac As Ci fib]
+13.9 +0.1 39 +13 +16 1006.5 920.2
18 20.07 СВ 6 20 км 3/0
[Ac As]
+17.8 +2.9 37 +17 +19 1000.4 914.9
21 20.07 С 4 20 км 3/0
[Ac lent Cc]
+18.1 +2.5 35 +18 +18 998.4 913.3
00 21.07 З 2 20 км ясно +8.6 +2.1 64 +7 +7 999.6 912.8 +1.8 +20.5
03 21.07 З 2 20 км ясно +5.4 +1.0 73 +3 +3 996.6 911.3
06 21.07 Ю 2 20 км ясно +5.4 -0.8 64 +3 +3 995.3 910.6
09 21.07 СВ 4 20 км 4/0
[Ac As]
+5.7 -0.4 65 +2 +2 995.3 910.8
12 21.07 Ю 3 20 км 5/1 1050 м
[Sc Ac As Cs]
+4.6 +3.2 91 +1 +1 1001.8 915.2 +4.7 +8.6
15 21.07 В 3 10 км пыль 1/0
[Cs]
+10.0 +2.3 59 +8 +13 1007.4 920.6
18 21.07 СВ 3 15 км пыль 3/0
[Ac As Cs]
+13.2 +0.3 41 +12 +17 1007.5 921.2
21 21.07 В 4 20 км 8/3 1050 м
[Sc Ac As Cs]
+13.0 -0.7 39 +12 +12 1009.2 922.8
00 22.07 С 1 20 км 8/0
[Ac As]
+9.3 -0.5 50 +9 +9 1014.8 927.2 +4.6 +14.0
03 22.07 З 3 20 км 9/9 900 м
[Sc]
+7.6 +0.3 60 +5 +5 1017.5 930.2
06 22.07 З 2 20 км 8/8 1050 м
[Sc]
+6.8 +2.1 72 +5 +5 1018.2 931.2
09 22.07 СЗ 1 20 км 3/3 1200 м
[Sc]
+3.8 -2.2 65 +3 +3 1020.0 932.4
12 22.07 штиль 0 20 км 9/5 1200 м
[Sc Ac As]
+3.2 -0.5 77 +2 +2 1023.4 934.8 +0.7 +9.3
15 22.07 Ю 1 20 км 9/5 1200 м
[Sc Ac As]
+7.2 -1.5 54 +7 +8 1024.8 936.5
18 22.07 В 3 20 км 10/5 1200 м
[Sc Ac As]
+9.6 -6.8 31 +8 +9 1023.3 935.3
21 22.07 В 1 20 км 9/4 1200 м
[Sc Ac As]
+8.8 -6.5 33 +9 +9 1024.2 935.6
00 23.07 штиль 0 20 км 3/0
[]
+2.5 -5.7 55 +2 +2 1026.8 936.9 +2.2 +10.0
03 23.07 З 4 20 км 10/8 1200 м
[Sc Ac As]
+1.2 -7.6 52 -3 -3 1027.7 938.1

 

Местоположение метеостанции Сан-Рафаэль (Аргентина): широта -34.58 долгота -68.40 высота над уровнем моря 748 м.

В архиве по умолчанию представлена погода в Сан-Рафаэле за последнюю неделю. Архивные данные за месяц целиком и за предыдущие месяцы, начиная с января 2011 года, Вы можете получить, выбрав интересующий диапазон дат из раскрывающегося списка и нажав кнопку "Ввод!".


*Определитесь, кто Вы:
робот инопланетянин человек

Внимание! Время в таблицах - всемирное. Для получения местного времени необходимо прибавить поправку, которая равна -3 ч.

Смотрите также архив погоды в соседних городах и на ближайших метеорологических станциях:

Погода в Маларгуэ (Аргентина) (148 км)
Погода в Сан-Мартине (Аргентина) (167 км)
Погода в Мендосе (Аргентина) (198 км)
Погода в Сан-Хосе-де-Майпо (Чили) (209 км)
Погода в Сантьяго Агуас Андинас (Чили) (229 км)
Погода в Сан-Луисе (Аргентина) (239 км)
Погода в Сантьяго (Чили) (246 км)
Погода в Талаганте (Чили) (247 км)
Погода на Пасо Лос Либертадорес (Чили) (250 км)
Погода в Пудауэле (Чили) (257 км)

Пояснения к столбцам:

Ветер - указаны скорость ветра в м/с - средняя за 10 мин, порывы в срок и между сроками (в фигурных скобках) и направление, откуда дует ветер: С - северный, СВ - северо-восточный, В - восточный, ЮВ - юго-восточный, Ю - южный, ЮЗ - юго-западный, З - западный, СЗ - северо-западный.
Видимость - горизонтальная дальность видимости в метрах или километрах. При видимости от 1 до 10 км при отсутствии осадков обычно наблюдается дымка, при ухудшении видимости до 1 км и менее - туман. В сухую погоду видимость может ухудшаться дымом, пылью или мглою.
Явления - указаны атмосферные явления, наблюдавшиеся в срок или в последний час перед сроком; фигурными скобками обозначены явления, наблюдавшиеся между сроками (за 1-3 часа до срока); квадратными скобками обозначены град или гололедные отложения с указанием их диаметра в мм.
Облачность - указаны через наклонную черту общая и нижняя облачность в баллах и высота нижней границы облаков в метрах; квадратными скобками обозначены формы облаков: Ci - перистые, Cs - перисто-слоистые, Cc - перисто-кучевые, Ac - высококучевые, As - высокослоистые, Sc - слоисто-кучевые, Ns - слоисто-дождевые, Cu - кучевые, Cb - кучево-дождевые. Подробнее классификацию облаков см. в Атласе облаков (PDF).
T - Температура воздуха - температура, измеренная на высоте 2 м над землей.
Td - Температура точки росы - температура, при понижении до которой содержащийся в воздухе водяной пар достигнет насыщения.
f - Относительная влажность воздуха - влажноcть воздуха, измеренная на высоте 2 м над землей.
Te - Эффективная температура - температура, которую ощущает одетый по сезону человек в тени. Характеристика душности погоды. При расчете учитывается влияние влажности воздуха и скорости ветра на теплоощущения человека.
Tes - Эффективная температура на солнце - температура, которую ощущает человек, с поправкой на солнечный нагрев. Характеристика знойности погоды. Зависит от высоты солнца над горизонтом, облачности и скорости ветра. Ночью, в пасмурную погоду, а также при ветре 12 м/с и более поправка равна нулю.
P - Атмосферное давление - приведенное к уровню моря атмосферное давление.
Po - Атмосферное давление - измеренное на уровне метеостанции атмосферное давление.
Tmin - Минимальная температура - минимум температуры воздуха на высоте 2 м над землей.
Tmax - Максимальная температура - максимум температуры воздуха на высоте 2 м над землей.
R - Количество осадков - Количество выпавших осадков за период времени, мм. При наведении курсора мыши на число - период времени, за который выпало указанное количество осадков.
R24 - Количество осадков - Количество выпавших осадков за 24 часа, мм.
S - Снежный покров - Высота снежного покрова, см. При наведении курсора мыши на число - состояние снежного покрова и степень покрытия местности в баллах.